You are listening to:
LKPR Approach - Prague, Czech Republic

LKPR 181400Z 21006KT 100V250 CAVOK 15/04 Q1025 NOSIG

If stream doesn't start automatically press the play button
If stream stops then reload player then press play